Regional Weather Roundup
Issued by NWS

Home | Current Version | Previous Version | Graphics & Text | Print | Product List | Glossary On
Versions: 1 2 3 4 5 6 7 8 9 10 11 12 13 14 15 16 17 18 19 20 21 22 23 24 25 26 27 28 29 30 31 32 33 34 35 36 37 38 39 40 41 42 43 44 45 46 47 48 49 50
000
ASUS43 KOAX 190010
RWRNE

WEATHER ROUNDUP FOR NEBRASKA
NATIONAL WEATHER SERVICE OMAHA NE
700 PM CDT MON SEP 18 2017

NOTES: SATELLITE DATA IS BEING USED TO AUGMENT CLOUD COVER ABOVE
       12000 FEET.
       "FAIR" INDICATES FEW OR NO CLOUDS BELOW 12,000 FEET WITH NO
       SIGNIFICANT WEATHER AND/OR OBSTRUCTIONS TO VISIBILITY.


NEZ001>004-019>022-054>056-190100-
NEBRASKA PANHANDLE

CITY           SKY/WX    TMP DP  RH WIND       PRES   REMARKS
SCOTTSBLUFF    CLEAR     77  49  37 E12       29.82F
6HR MIN TEMP:  74; 6HR MAX TEMP:  83;

ALLIANCE       CLEAR     73  46  38 SE9       29.83F
6HR MIN TEMP:  73; 6HR MAX TEMP:  82;

CHADRON        CLEAR     82  32  16 S6        29.75F
6HR MIN TEMP:  77; 6HR MAX TEMP:  86;

GORDON         FAIR      79  39  24 CALM      29.81F
6HR MIN TEMP:  75; 6HR MAX TEMP:  82;

KIMBALL        SUNNY     78  35  21 S9        29.90F
SIDNEY         CLEAR     79  32  18 S15       29.90S
6HR MIN TEMP:  78; 6HR MAX TEMP:  84;

$$

NEZ057>060-069>072-079>082-190100-
SOUTHWEST NEBRASKA

CITY           SKY/WX    TMP DP  RH WIND       PRES   REMARKS
NORTH PLATTE   CLEAR     77  55  46 SE8       29.85S
6HR MIN TEMP:  69; 6HR MAX TEMP:  82;

LEXINGTON      CLEAR     78  59  53 SE6       29.86F
MCCOOK         CLEAR     81  56  42 E6        29.86S
6HR MIN TEMP:  69; 6HR MAX TEMP:  84;

OGALLALA       CLEAR     84  32  15 CALM      29.85F
$$

NEZ005>010-023>029-035>040-094-190100-
NORTH CENTRAL NEBRASKA

CITY           SKY/WX    TMP DP  RH WIND       PRES   REMARKS
VALENTINE      CLEAR     81  40  23 CALM      29.81S
6HR MIN TEMP:  76; 6HR MAX TEMP:  86;

AINSWORTH      CLEAR     74  60  62 S13       29.83S
O`NEILL        CLEAR     73  64  73 S10       29.84S
THEDFORD       CLEAR     80  44  28 SW5       29.85S
$$

NEZ041-046>049-061>064-073>077-083>087-190100-
SOUTH CENTRAL NEBRASKA

CITY           SKY/WX    TMP DP  RH WIND       PRES   REMARKS
GRAND ISLAND   CLEAR     75  66  73 SE7       29.87S
6HR MIN TEMP:  70; 6HR MAX TEMP:  78;

AURORA         CLEAR     74  66  77 SE3       29.87S
HASTINGS       CLEAR     78  61  55 S3        29.87F
6HR MIN TEMP:  71; 6HR MAX TEMP:  80;

HEBRON         CLEAR     78  66  66 SE6       29.87S
HOLDREGE       CLEAR     76  58  52 SE5       29.86F
YORK           CLEAR     75  66  73 CALM      29.87S
$$

NEZ011>018-030>034-042>045-190100-
NORTHEAST NEBRASKA

CITY           SKY/WX    TMP DP  RH WIND       PRES   REMARKS
NORFOLK        CLEAR     70  66  87 S8        29.85F
6HR MIN TEMP:  70; 6HR MAX TEMP:  73;

ALBION         PTCLDY    72  66  83 SE5       29.86S
BLAIR          MOCLDY    72  67  84 CALM      29.88S
COLUMBUS       PTCLDY    72  67  84 SE6       29.87F
FREMONT        CLEAR     72  66  81 S3        29.89R
TEKAMAH        CLOUDY    71  67  87 CALM      29.88S
6HR MIN TEMP:  69; 6HR MAX TEMP:  74;

WAYNE          CLEAR     70  67  91 S8        29.86S
$$

NEZ050>053-065>068-078-088>093-190100-
SOUTHEAST NEBRASKA

CITY           SKY/WX    TMP DP  RH WIND       PRES   REMARKS
LINCOLN        CLEAR     74  66  76 SE7       29.88S
6HR MIN TEMP:  68; 6HR MAX TEMP:  76; 6HR PCP:  0.01;

OMAHA EPPLEY   MOCLDY    73  66  78 SE8       29.87S
6HR MIN TEMP:  69; 6HR MAX TEMP:  74; 6HR PCP: TRACE;

BEATRICE       CLEAR     76  66  69 SE5       29.87F
FALLS CITY     CLEAR     76  66  71 S6        29.88S
6HR MIN TEMP:  69; 6HR MAX TEMP:  79; 6HR PCP:  0.01;

NEBRASKA CITY  CLEAR     74  69  85 S5        29.89S
PLATTSMOUTH    MOCLDY    72  67  84 S5        29.89R
$$

NEZ044-045-051>053-067-190100-
OMAHA AREA

CITY           SKY/WX    TMP DP  RH WIND       PRES   REMARKS
OMAHA EPPLEY   MOCLDY    73  66  78 SE8       29.87S
6HR MIN TEMP:  69; 6HR MAX TEMP:  74; 6HR PCP: TRACE;

BLAIR          MOCLDY    72  67  84 CALM      29.88S
FREMONT        CLEAR     72  66  81 S3        29.89R
MILLARD        MOCLDY    75  69  79 S3        29.87S
OFFUTT AFB     PTCLDY    72  67  82 SE7       29.87F
PLATTSMOUTH    MOCLDY    72  67  84 S5        29.89R
WAHOO          FAIR      71  67  89 S3        29.88R
$$




USA.gov is the U.S. government's official web portal to all federal, state and local government web resources and services.